Location: Bittelbronn
(48.4454°N, 8.5870°E)
Time: 23:37:49
(UTC+00:00)

Meteor 2-5 Rocket - Pass Details

Date: 11 August 2024
Orbit: 833 x 910 km, 81.2° (Epoch: 07 September)

Event Time Altitude Azimuth Distance (km) Brightness Sun altitude
Rises 00:32:45 0° 359° (N) 3,453 8.1 -24.9°
Reaches altitude 10° 00:36:17 10° 22° (NNE) 2,528 7.2 -24.7°
Maximum altitude 00:39:38 16° 58° (ENE) 2,165 6.4 -24.6°
Drops below altitude 10° 00:43:00 10° 93° (E) 2,550 6.4 -24.4°
Sets 00:46:34 0° 115° (ESE) 3,500 6.9 -24.2°
